Weather History for KMQJ - February, 2014

Change the Weather History Date:

Tuesday, February 4, 2014

  Actual Average (KEYE) Record (KEYE)
Temperature  
Mean Temperature 20 °F 29 °F  
Max Temperature 26 °F 37 °F 64 °F (2008)
Min Temperature 14 °F 22 °F 0 °F (2007)
Degree Days  
Heating Degree Days 45 36  
Month to date heating degree days 144  
Since 1 July heating degree days 3345  
Cooling Degree Days 0 0  
Month to date cooling degree days 0  
Year to date cooling degree days 0  
Moisture  
Dew Point 17 °F    
Average Humidity 87    
Maximum Humidity 100    
Minimum Humidity 69    
Precipitation  
Precipitation 0.00 in 0.06 in 0.55 in (1997)
Month to date precipitation 0.24  
Year to date precipitation 2.45  
Sea Level Pressure  
Sea Level Pressure 30.22 in    
Wind  
Wind Speed 8 mph (NE)    
Max Wind Speed 18 mph    
Max Gust Speed 23 mph    
Visibility 6 miles    
Events      
T = Trace of Precipitation, MM = Missing Value Source: NWS Daily Summary

Daily Weather History Graph

Daily Weather History Graph

Search for Another Location

Airport or City:

Trip Planner

Search our weather history database for the weather conditions in past years. The results will help you decide how hot, cold, wet, or windy it might be!

Date:

Astronomy

Feb. 04, 2014 Rise Set
Actual Time 7:48 AM EST 6:06 PM EST
Civil Twilight 7:20 AM EST 6:35 PM EST
Nautical Twilight 6:48 AM EST 7:07 PM EST
Astronomical Twilight 6:16 AM EST 7:38 PM EST
Moon 10:26 AM EST (2/4) 11:59 PM EST (2/4)
Length of Visible Light 11h 14m
Length of Day
10h 17m
Waxing Crescent, 29% of the Moon is Illuminated
Feb 4
Waxing Crescent
Feb 6
First Quarter
Feb 14
Full
Feb 22
Last Quarter
Mar 1
New

Hourly Weather History & Observations

Time (EST) Temp. Windchill Dew Point Humidity Pressure Visibility Wind Dir Wind Speed Gust Speed Precip Events Conditions
12:15 AM 14.0 °F 5.1 °F 12.2 °F 93% 30.34 in 7.0 mi NNE 5.8 mph - N/A   Clear
12:34 AM 14.0 °F 5.1 °F 12.2 °F 93% 30.34 in 7.0 mi NE 5.8 mph - N/A   Clear
12:54 AM 14.0 °F 3.9 °F 12.2 °F 93% 30.32 in 7.0 mi NE 6.9 mph - N/A   Clear
1:15 AM 14.0 °F 6.5 °F 12.2 °F 93% 30.33 in 7.0 mi ENE 4.6 mph - N/A   Clear
1:34 AM 14.0 °F 6.5 °F 12.2 °F 93% 30.33 in 7.0 mi East 4.6 mph - N/A   Clear
1:54 AM 14.0 °F 8.2 °F 12.2 °F 93% 30.33 in 7.0 mi ENE 3.5 mph - N/A   Clear
2:15 AM 14.0 °F 8.2 °F 12.2 °F 93% 30.33 in 7.0 mi ENE 3.5 mph - N/A   Clear
2:34 AM 15.8 °F 10.2 °F 12.2 °F 86% 30.32 in 7.0 mi NE 3.5 mph - N/A   Clear
2:54 AM 15.8 °F 8.6 °F 12.2 °F 86% 30.33 in 7.0 mi NNE 4.6 mph - N/A   Clear
3:15 AM 15.8 °F 7.2 °F 14.0 °F 93% 30.33 in 7.0 mi North 5.8 mph - N/A   Clear
3:34 AM 15.8 °F 10.2 °F 12.2 °F 86% 30.33 in 7.0 mi NNE 3.5 mph - N/A   Clear
3:54 AM 15.8 °F 8.6 °F 12.2 °F 86% 30.34 in 7.0 mi NNE 4.6 mph - N/A   Clear
4:15 AM 15.8 °F 7.2 °F 12.2 °F 86% 30.34 in 7.0 mi NNE 5.8 mph - N/A   Clear
4:34 AM 15.8 °F 8.6 °F 14.0 °F 93% 30.34 in 7.0 mi NE 4.6 mph - N/A   Clear
4:54 AM 15.8 °F 6.1 °F 14.0 °F 93% 30.34 in 7.0 mi NNE 6.9 mph - N/A   Clear
5:15 AM 15.8 °F 7.2 °F 14.0 °F 93% 30.33 in 7.0 mi NE 5.8 mph - N/A   Clear
5:34 AM 17.6 °F 7.3 °F 14.0 °F 86% 30.32 in 7.0 mi NE 8.1 mph - N/A   Clear
5:54 AM 17.6 °F 6.4 °F 14.0 °F 86% 30.32 in 7.0 mi NE 9.2 mph - N/A   Clear
6:14 AM 17.6 °F 8.2 °F 14.0 °F 86% 30.33 in 7.0 mi NNE 6.9 mph - N/A   Clear
6:34 AM 17.6 °F 8.2 °F 14.0 °F 86% 30.33 in 7.0 mi NNE 6.9 mph - N/A   Clear
6:55 AM 17.6 °F 9.3 °F 14.0 °F 86% 30.33 in 7.0 mi ENE 5.8 mph - N/A   Clear
7:14 AM 17.6 °F 12.3 °F 14.0 °F 86% 30.36 in 7.0 mi NNE 3.5 mph - N/A   Clear
7:34 AM 17.6 °F - 14.0 °F 86% 30.38 in 10.0 mi Calm Calm - N/A   Clear
7:55 AM 17.6 °F 12.3 °F 14.0 °F 86% 30.38 in 7.0 mi NE 3.5 mph - N/A   Clear
8:14 AM 19.4 °F 10.4 °F 14.0 °F 80% 30.34 in 7.0 mi ENE 6.9 mph - N/A   Clear
8:34 AM 19.4 °F 8.6 °F 15.8 °F 86% 30.31 in 7.0 mi ENE 9.2 mph - N/A   Clear
8:55 AM 19.4 °F 9.5 °F 15.8 °F 86% 30.32 in 7.0 mi NE 8.1 mph - N/A   Clear
9:14 AM 21.2 °F 12.6 °F 15.8 °F 80% 30.34 in 10.0 mi NE 6.9 mph - N/A   Clear
9:34 AM 21.2 °F 12.6 °F 15.8 °F 80% 30.36 in 10.0 mi NE 6.9 mph - N/A   Clear
9:55 AM 21.2 °F 12.6 °F 15.8 °F 80% 30.34 in 10.0 mi ENE 6.9 mph - N/A   Clear
10:14 AM 21.2 °F 11.7 °F 15.8 °F 80% 30.34 in 10.0 mi NE 8.1 mph - N/A   Clear
10:34 AM 23.0 °F 13.1 °F 17.6 °F 80% 30.32 in 10.0 mi ENE 9.2 mph - N/A   Clear
10:55 AM 23.0 °F 12.4 °F 15.8 °F 74% 30.30 in 10.0 mi ENE 10.4 mph - N/A   Clear
11:14 AM 23.0 °F 12.4 °F 15.8 °F 74% 30.28 in 10.0 mi ENE 10.4 mph - N/A   Clear
11:34 AM 24.8 °F 14.0 °F 17.6 °F 74% 30.25 in 10.0 mi ENE 11.5 mph - N/A   Clear
11:55 AM 24.8 °F 17.9 °F 17.6 °F 74% 30.27 in 10.0 mi East 5.8 mph - N/A   Clear
12:14 PM 26.6 °F 20.0 °F 17.6 °F 69% 30.27 in 10.0 mi East 5.8 mph - N/A   Clear
12:34 PM 26.6 °F 19.1 °F 17.6 °F 69% 30.27 in 10.0 mi East 6.9 mph - N/A   Scattered Clouds
12:55 PM 26.6 °F 18.2 °F 19.4 °F 74% 30.25 in 10.0 mi ENE 8.1 mph - N/A   Scattered Clouds
1:14 PM 26.6 °F 18.2 °F 19.4 °F 74% 30.26 in 10.0 mi East 8.1 mph - N/A   Clear
1:34 PM 26.6 °F 17.5 °F 19.4 °F 74% 30.24 in 10.0 mi NNE 9.2 mph - N/A   Clear
1:55 PM 26.6 °F 15.7 °F 19.4 °F 74% 30.22 in 10.0 mi NNE 12.7 mph - N/A   Clear
2:15 PM 26.6 °F 15.2 °F 19.4 °F 74% 30.20 in 10.0 mi NNE 13.8 mph - N/A   Clear
2:34 PM 26.6 °F 17.5 °F 19.4 °F 74% 30.22 in 10.0 mi NE 9.2 mph - N/A   Clear
2:54 PM 24.8 °F 14.0 °F 19.4 °F 80% 30.21 in 7.0 mi NNE 11.5 mph - N/A   Clear
3:15 PM 24.8 °F 15.3 °F 19.4 °F 80% 30.21 in 7.0 mi NE 9.2 mph - N/A   Scattered Clouds
3:34 PM 24.8 °F 14.6 °F 21.2 °F 86% 30.21 in 7.0 mi NE 10.4 mph - N/A   Clear
3:54 PM 24.8 °F 13.4 °F 21.2 °F 86% 30.17 in 7.0 mi NNE 12.7 mph - N/A   Clear
4:15 PM 24.8 °F 14.6 °F 21.2 °F 86% 30.18 in 5.0 mi ENE 10.4 mph - N/A   Clear
4:34 PM 24.8 °F 15.3 °F 21.2 °F 86% 30.19 in 7.0 mi NE 9.2 mph - N/A   Clear
4:54 PM 24.8 °F 14.0 °F 21.2 °F 86% 30.16 in 3.0 mi NE 11.5 mph - N/A   Mostly Cloudy
5:14 PM 23.0 °F 11.7 °F 23.0 °F 100% 30.16 in 0.5 mi NNE 11.5 mph - N/A   Overcast
5:34 PM 23.0 °F 10.1 °F 23.0 °F 100% 30.14 in 0.2 mi NE 15.0 mph - N/A   Overcast
5:55 PM 23.0 °F 12.4 °F - N/A% 30.17 in 0.5 mi NE 10.4 mph - N/A   Overcast
6:14 PM 21.2 °F 7.3 °F - N/A% 30.14 in 0.8 mi NE 16.1 mph 20.7 mph N/A   Overcast
6:34 PM 21.2 °F 7.3 °F - N/A% 30.10 in 0.2 mi NE 16.1 mph 20.7 mph N/A   Overcast
6:55 PM 21.2 °F 6.4 °F - N/A% 30.08 in 0.5 mi NE 18.4 mph - N/A   Overcast
7:14 PM 21.2 °F 8.3 °F - N/A% 30.08 in 0.8 mi NE 13.8 mph 23.0 mph N/A   Overcast
7:34 PM 21.2 °F 7.3 °F 21.2 °F 100% 30.06 in 1.2 mi NE 16.1 mph 20.7 mph N/A   Overcast
7:55 PM 21.2 °F 6.8 °F 21.2 °F 100% 30.05 in 1.0 mi NE 17.3 mph - N/A   Overcast
8:14 PM 21.2 °F 7.3 °F 21.2 °F 100% 30.05 in 0.8 mi ENE 16.1 mph - N/A   Overcast
8:34 PM 21.2 °F 8.3 °F 21.2 °F 100% 30.04 in 0.8 mi ENE 13.8 mph - N/A   Overcast
8:55 PM 21.2 °F 7.3 °F 21.2 °F 100% 30.01 in 0.8 mi ENE 16.1 mph - N/A   Overcast
9:14 PM 21.2 °F 7.8 °F 21.2 °F 100% 30.02 in 1.2 mi ENE 15.0 mph - N/A   Overcast
9:34 PM 21.2 °F 8.3 °F 21.2 °F 100% 30.00 in 1.0 mi ENE 13.8 mph - N/A   Overcast
9:55 PM 21.2 °F 8.3 °F 21.2 °F 100% 30.00 in 1.0 mi ENE 13.8 mph - N/A   Overcast
10:14 PM 21.2 °F 7.8 °F 21.2 °F 100% 29.98 in 1.0 mi ENE 15.0 mph - N/A   Overcast
10:34 PM 21.2 °F 7.3 °F 21.2 °F 100% 29.96 in 1.0 mi ENE 16.1 mph - N/A   Overcast
10:54 PM 21.2 °F 9.5 °F 21.2 °F 100% 29.97 in 1.2 mi NE 11.5 mph - N/A   Overcast
11:14 PM 21.2 °F 7.8 °F 21.2 °F 100% 29.93 in 0.8 mi NE 15.0 mph - N/A   Overcast
11:34 PM 21.2 °F 6.8 °F 21.2 °F 100% 29.89 in 0.8 mi NE 17.3 mph - N/A   Overcast
11:54 PM 21.2 °F 8.3 °F 21.2 °F 100% 29.88 in 2.5 mi ENE 13.8 mph 21.9 mph N/A   Overcast